EDT,Max TemperatureF,Mean TemperatureF,Min TemperatureF,Max Dew PointF,MeanDew PointF,Min DewpointF,Max Humidity, Mean Humidity, Min Humidity, Max Sea Level PressureIn, Mean Sea Level PressureIn, Min Sea Level PressureIn, Max VisibilityMiles, Mean VisibilityMiles, Min VisibilityMiles, Max Wind SpeedMPH, Mean Wind SpeedMPH, Max Gust SpeedMPH,PrecipitationIn, CloudCover, Events, WindDirDegrees
2012-10-1,59,55,51,50,48,46,82,77,69,29.90,29.67,29.53,10,9,3,14,7,21,0.00,8,Rain,218
2012-10-2,67,59,51,54,51,46,83,73,55,30.07,29.99,29.90,10,10,2,7,3,,0.00,5,Rain,196
2012-10-3,66,60,55,60,55,50,85,82,74,30.16,30.11,30.07,10,6,0,5,1,,0.00,8,Fog-Rain,112
2012-10-4,65,62,57,59,57,53,84,82,78,30.16,30.10,30.02,10,9,1,8,4,,0.00,7,Rain,167
2012-10-5,74,64,53,56,52,49,84,69,42,30.01,29.94,29.86,10,9,2,12,4,17,0.00,4,,191
2012-10-6,63,56,48,56,48,34,85,77,57,29.90,29.79,29.69,10,7,0,14,3,22,0.00,7,Fog-Rain,224
2012-10-7,51,47,42,38,35,33,80,64,50,30.07,30.01,29.90,10,10,7,13,4,18,0.00,7,Rain,250
2012-10-8,54,45,37,38,33,19,83,65,26,30.31,30.19,30.07,10,10,5,7,1,,0.00,4,Rain,250
2012-10-9,57,44,31,40,34,28,87,67,42,30.32,30.23,30.10,10,10,10,14,5,20,0.00,4,,186
2012-10-10,55,50,45,49,42,38,82,71,58,30.10,29.89,29.71,10,9,3,17,9,36,0.00,8,Rain,173
2012-10-11,52,46,42,37,29,21,74,53,30,30.03,29.93,29.76,10,10,5,20,10,28,0.00,6,Rain,253
2012-10-12,48,41,34,37,28,18,75,60,40,30.32,30.08,29.87,10,10,7,18,10,28,0.00,7,Rain,280
2012-10-13,49,38,27,29,22,18,76,52,30,30.40,30.33,30.20,10,10,10,13,4,20,0.00,4,,235
2012-10-14,55,46,37,49,40,27,82,79,52,30.22,29.99,29.81,10,9,3,14,9,23,0.00,8,Rain,169
2012-10-15,67,60,54,55,50,43,82,72,61,29.80,29.65,29.57,10,10,5,18,6,25,0.00,5,Rain,183
2012-10-16,54,48,39,47,33,28,80,62,55,29.87,29.71,29.60,10,10,3,17,6,26,0.00,7,Rain,269
2012-10-17,58,45,32,37,31,24,82,60,28,29.98,29.94,29.87,10,9,0,6,1,,0.00,2,,191
2012-10-18,67,54,42,39,32,20,74,45,17,30.05,30.00,29.97,10,10,10,16,5,23,0.00,1,,175
2012-10-19,59,55,51,54,48,41,84,76,65,30.04,29.91,29.74,10,8,0,9,3,10,0.00,7,Rain,145
2012-10-20,71,59,47,58,49,37,85,67,28,29.73,29.66,29.57,10,9,0,13,3,16,0.00,5,Fog-Rain,209
2012-10-21,53,48,43,44,40,38,84,70,57,29.85,29.78,29.72,10,10,5,17,6,26,0.00,7,Rain,231
2012-10-22,55,50,44,39,37,35,69,60,49,30.03,29.93,29.85,10,10,10,16,10,25,0.00,5,,292
2012-10-23,53,44,34,38,32,26,82,60,38,30.17,30.11,30.02,10,10,7,10,5,,0.00,2,,337
2012-10-24,55,42,29,34,25,8,85,60,15,30.24,30.19,30.15,10,10,10,6,2,,0.00,2,,318
2012-10-25,65,48,33,38,31,22,83,50,21,30.27,30.22,30.17,10,10,10,12,3,,0.00,3,,175
2012-10-26,74,62,50,50,45,39,72,58,40,30.19,30.13,30.07,10,10,10,10,7,,0.00,1,,190
2012-10-27,71,58,45,53,49,41,85,72,49,30.11,30.05,29.99,10,7,0,6,2,,0.00,6,Fog,181
2012-10-28,63,55,47,50,45,39,85,70,42,30.05,29.99,29.93,10,7,0,10,3,,0.00,2,Fog,26
2012-10-29,64,57,50,50,45,42,80,69,46,29.92,29.74,29.45,10,10,7,23,10,34,0.00,7,Rain,26
2012-10-30,69,64,59,55,52,47,84,69,46,29.60,29.53,29.42,10,9,0,23,14,34,0.00,5,Rain,102
2012-10-31,61,54,48,53,45,36,85,73,58,29.55,29.48,29.44,10,8,0,13,4,28,0.00,6,Fog-Rain,175